When you browse on this site, cookies collect data to enhance your experience and personalize the content and advertising you see.
Visit our Privacy Policy to learn more. By continuing to use the site, you agree to this use of cookies and data.
  • en Suisse
  • Liste des pays
  • À 7 jours
  • Température de l'eau
  • Carte météo
  • Widgets météo
  • user-avatar
    Se connecter

    Météo par heure à Kalgoorlie

    Ce jour, 2 Juin, Mardi

    Heure Température Précipitation Vent Pression Humidité
    00:00 +13°C° 0 mm 2 m/s 738 mmHg 63%
    01:00 +13°C° 0 mm 2 m/s 737 mmHg 65%
    02:00 +12°C° 0 mm 2 m/s 737 mmHg 66%
    03:00 +12°C° 0 mm 2 m/s 737 mmHg 68%
    04:00 +12°C° 0 mm 2 m/s 738 mmHg 69%
    05:00 +10°C° 0 mm 2 m/s 738 mmHg 70%
    06:00 +11°C° 0 mm 3 m/s 738 mmHg 68%
    07:00 +11°C° 0 mm 3 m/s 738 mmHg 67%
    08:00 +12°C° 0 mm 3 m/s 738 mmHg 65%
    09:00 +14°C° 0 mm 3 m/s 738 mmHg 59%
    10:00 +15°C° 0 mm 4 m/s 738 mmHg 53%
    11:00 +18°C° 0 mm 4 m/s 738 mmHg 47%
    12:00 +19°C° 0 mm 4 m/s 738 mmHg 44%
    13:00 +20°C° 0 mm 4 m/s 737 mmHg 41%
    14:00 +21°C° 0 mm 4 m/s 737 mmHg 38%
    15:00 +20°C° 0 mm 4 m/s 737 mmHg 40%
    16:00 +19°C° 0 mm 4 m/s 737 mmHg 42%
    17:00 +18°C° 0 mm 4 m/s 737 mmHg 44%
    18:00 +18°C° 0 mm 4 m/s 737 mmHg 45%
    19:00 +17°C° 0 mm 4 m/s 737 mmHg 47%
    20:00 +15°C° 0 mm 5 m/s 737 mmHg 49%
    21:00 +15°C° 0 mm 4 m/s 738 mmHg 50%
    22:00 +14°C° 0 mm 4 m/s 738 mmHg 51%
    23:00 +14°C° 0 mm 4 m/s 738 mmHg 52%

    Demain, 3 Juin, Mercredi

    Heure Température Précipitation Vent Pression Humidité
    00:00 +13°C° 0 mm 4 m/s 738 mmHg 54%
    01:00 +13°C° 0 mm 4 m/s 738 mmHg 57%
    02:00 +12°C° 0 mm 3 m/s 738 mmHg 59%
    03:00 +12°C° 0 mm 4 m/s 738 mmHg 61%
    04:00 +11°C° 0 mm 4 m/s 738 mmHg 63%
    05:00 +11°C° 0 mm 4 m/s 738 mmHg 65%
    06:00 +11°C° 0 mm 4 m/s 738 mmHg 64%
    07:00 +12°C° 0 mm 5 m/s 738 mmHg 64%
    08:00 +12°C° 0 mm 5 m/s 738 mmHg 63%
    09:00 +14°C° 0 mm 6 m/s 738 mmHg 56%
    10:00 +16°C° 0 mm 6 m/s 738 mmHg 50%
    11:00 +19°C° 0 mm 6 m/s 738 mmHg 44%
    12:00 +20°C° 0 mm 5 m/s 737 mmHg 41%
    13:00 +21°C° 0 mm 5 m/s 737 mmHg 38%
    14:00 +22°C° 0 mm 4 m/s 736 mmHg 35%
    15:00 +21°C° 0 mm 3 m/s 736 mmHg 37%
    16:00 +20°C° 0 mm 3 m/s 736 mmHg 39%
    17:00 +19°C° 0 mm 2 m/s 736 mmHg 41%
    18:00 +18°C° 0 mm 3 m/s 736 mmHg 42%
    19:00 +18°C° 0 mm 3 m/s 736 mmHg 43%
    20:00 +17°C° 0 mm 4 m/s 736 mmHg 44%
    21:00 +17°C° 0 mm 4 m/s 736 mmHg 46%
    22:00 +15°C° 0 mm 4 m/s 736 mmHg 48%
    23:00 +14°C° 0 mm 4 m/s 737 mmHg 50%

    Après-demain, 4 Juin, Jeudi

    Heure Température Précipitation Vent Pression Humidité
    00:00 +14°C° 0 mm 4 m/s 736 mmHg 50%
    01:00 +14°C° 0 mm 4 m/s 736 mmHg 51%
    02:00 +13°C° 0 mm 4 m/s 736 mmHg 52%
    03:00 +13°C° 0 mm 4 m/s 736 mmHg 52%
    04:00 +13°C° 0 mm 3 m/s 736 mmHg 53%
    05:00 +12°C° 0 mm 3 m/s 736 mmHg 54%
    06:00 +13°C° 0 mm 3 m/s 736 mmHg 52%
    07:00 +13°C° 0 mm 3 m/s 736 mmHg 51%
    08:00 +14°C° 0 mm 4 m/s 736 mmHg 49%
    09:00 +17°C° 0 mm 4 m/s 737 mmHg 43%
    10:00 +20°C° 0 mm 5 m/s 737 mmHg 37%
    11:00 +22°C° 0 mm 5 m/s 737 mmHg 31%
    12:00 +23°C° 0 mm 5 m/s 736 mmHg 29%
    13:00 +25°C° 0 mm 5 m/s 736 mmHg 27%
    14:00 +26°C° 0 mm 4 m/s 735 mmHg 25%
    15:00 +24°C° 0 mm 3 m/s 735 mmHg 28%
    16:00 +23°C° 0 mm 2 m/s 735 mmHg 31%
    17:00 +22°C° 0 mm 1 m/s 735 mmHg 34%
    18:00 +21°C° 0 mm 2 m/s 735 mmHg 33%
    19:00 +21°C° 0 mm 2 m/s 735 mmHg 32%
    20:00 +21°C° 0 mm 3 m/s 736 mmHg 31%
    21:00 +21°C° 0 mm 3 m/s 736 mmHg 32%
    22:00 +20°C° 0 mm 3 m/s 736 mmHg 33%
    23:00 +19°C° 0 mm 3 m/s 736 mmHg 34%

    5 Juin, Vendredi

    Heure Température Précipitation Vent Pression Humidité
    00:00 +19°C° 0 mm 3 m/s 736 mmHg 35%
    01:00 +19°C° 0 mm 3 m/s 735 mmHg 36%
    02:00 +18°C° 0 mm 2 m/s 735 mmHg 37%
    03:00 +18°C° 0 mm 2 m/s 735 mmHg 39%
    04:00 +17°C° 0 mm 2 m/s 736 mmHg 40%
    05:00 +16°C° 0 mm 2 m/s 736 mmHg 42%
    06:00 +16°C° 0 mm 2 m/s 736 mmHg 43%
    07:00 +17°C° 0 mm 2 m/s 736 mmHg 45%
    08:00 +17°C° 0 mm 2 m/s 737 mmHg 46%
    09:00 +18°C° 0 mm 3 m/s 737 mmHg 43%
    10:00 +20°C° 0 mm 3 m/s 737 mmHg 40%
    11:00 +22°C° 0 mm 3 m/s 737 mmHg 37%
    12:00 +22°C° 0 mm 4 m/s 736 mmHg 35%
    13:00 +23°C° 0 mm 4 m/s 736 mmHg 33%
    14:00 +25°C° 0 mm 4 m/s 735 mmHg 31%
    15:00 +23°C° 0 mm 4 m/s 735 mmHg 33%
    16:00 +22°C° 0 mm 4 m/s 735 mmHg 35%
    17:00 +21°C° 0 mm 4 m/s 735 mmHg 37%
    18:00 +20°C° 0 mm 4 m/s 736 mmHg 40%
    19:00 +19°C° 0 mm 4 m/s 736 mmHg 43%
    20:00 +18°C° 0 mm 4 m/s 736 mmHg 47%
    21:00 +17°C° 0 mm 4 m/s 736 mmHg 50%
    22:00 +15°C° 0 mm 4 m/s 736 mmHg 54%
    23:00 +14°C° 0 mm 5 m/s 736 mmHg 57%

    6 Juin, Samedi

    Heure Température Précipitation Vent Pression Humidité
    00:00 +14°C° 0 mm 4 m/s 736 mmHg 61%
    01:00 +13°C° 0 mm 4 m/s 735 mmHg 64%
    02:00 +12°C° 0 mm 4 m/s 735 mmHg 68%
    03:00 +12°C° 0 mm 3 m/s 735 mmHg 74%
    04:00 +11°C° 0 mm 3 m/s 735 mmHg 81%
    05:00 +11°C° 0 mm 3 m/s 735 mmHg 87%
    06:00 +11°C° 0 mm 3 m/s 735 mmHg 85%
    07:00 +11°C° 0 mm 3 m/s 736 mmHg 84%
    08:00 +11°C° 0 mm 3 m/s 736 mmHg 82%
    09:00 +14°C° 0 mm 2 m/s 736 mmHg 71%
    10:00 +16°C° 0 mm 2 m/s 736 mmHg 60%
    11:00 +18°C° 0 mm 2 m/s 735 mmHg 49%
    12:00 +20°C° 0 mm 1 m/s 735 mmHg 44%
    13:00 +22°C° 0 mm 1 m/s 734 mmHg 40%
    14:00 +23°C° 0 mm 1 m/s 734 mmHg 35%
    15:00 +22°C° 0 mm 1 m/s 734 mmHg 38%
    16:00 +21°C° 0 mm 1 m/s 734 mmHg 40%
    17:00 +19°C° 0 mm 2 m/s 734 mmHg 42%
    18:00 +18°C° 0 mm 2 m/s 734 mmHg 43%
    19:00 +18°C° 0 mm 3 m/s 734 mmHg 44%
    20:00 +18°C° 0 mm 3 m/s 734 mmHg 45%
    21:00 +17°C° 0 mm 3 m/s 734 mmHg 45%
    22:00 +17°C° 0 mm 3 m/s 734 mmHg 45%
    23:00 +17°C° 0 mm 4 m/s 734 mmHg 45%

    7 Juin, Dimanche

    Heure Température Précipitation Vent Pression Humidité
    00:00 +15°C° 0 mm 4 m/s 734 mmHg 44%
    01:00 +15°C° 0 mm 4 m/s 734 mmHg 43%
    02:00 +15°C° 0 mm 4 m/s 734 mmHg 42%
    03:00 +15°C° 0 mm 4 m/s 734 mmHg 42%
    04:00 +14°C° 0 mm 4 m/s 734 mmHg 42%
    05:00 +14°C° 0 mm 4 m/s 734 mmHg 42%
    06:00 +14°C° 0 mm 5 m/s 734 mmHg 42%
    07:00 +15°C° 0 mm 5 m/s 734 mmHg 41%
    08:00 +15°C° 0 mm 5 m/s 735 mmHg 41%
    09:00 +17°C° 0 mm 5 m/s 735 mmHg 37%
    10:00 +19°C° 0 mm 6 m/s 734 mmHg 34%
    11:00 +21°C° 0 mm 6 m/s 734 mmHg 30%
    12:00 +21°C° 0 mm 6 m/s 734 mmHg 29%
    13:00 +22°C° 0 mm 5 m/s 733 mmHg 28%
    14:00 +23°C° 0 mm 5 m/s 733 mmHg 26%
    15:00 +22°C° 0 mm 4 m/s 733 mmHg 29%
    16:00 +20°C° 0 mm 3 m/s 733 mmHg 32%
    17:00 +19°C° 0 mm 2 m/s 733 mmHg 34%
    18:00 +19°C° 0 mm 2 m/s 733 mmHg 35%
    19:00 +19°C° 0 mm 2 m/s 734 mmHg 35%
    20:00 +18°C° 0 mm 2 m/s 734 mmHg 36%
    21:00 +18°C° 0 mm 2 m/s 734 mmHg 38%
    22:00 +18°C° 0 mm 2 m/s 734 mmHg 40%
    23:00 +18°C° 0 mm 2 m/s 734 mmHg 42%
    Voir plus